Regional Weather Roundup
Issued by NWS San Diego, CA

Home | Current Version | Previous Version | Text Only | Print | Product List | Glossary On
Versions: 1 2 3 4 5 6 7 8 9 10 11 12 13 14 15 16 17 18 19 20 21 22 23 24 25 26 27 28 29 30 31 32 33 34 35 36 37 38 39 40 41 42 43 44 45 46 47 48 49 50
000
ASUS46 KSGX 311403
RWRSGX

SAN DIEGO HOURLY WEATHER ROUNDUP
NATIONAL WEATHER SERVICE SAN DIEGO CA
700 AM PDT THU JUL 31 2014

NOTE: "FAIR" INDICATES FEW OR NO CLOUDS BELOW 12,000 FEET WITH NO
SIGNIFICANT WEATHER AND/OR OBSTRUCTIONS TO VISIBILITY.

CAZ042-043-060-061-PZZ750-775-311500-

GREATER SAN DIEGO AREA

CITY           SKY/WX    TMP DP  RH WIND       PRES   REMARKS
LINDBERGH FLD  PTSUNNY   72  65  78 CALM      29.95R
POINT LOMA       N/A     67  64  89 NW2         N/A
NATIONAL CITY    N/A     71  68  89 CALM      29.94R
CHULA VISTA      N/A     71  67  88 CALM      29.87R
IMPERIAL BEACH CLOUDY    70  66  88 CALM      29.94S
BROWN FIELD    CLOUDY    68  66  93 CALM      29.94S FOG
MIRAMAR MCAS   PTSUNNY   68  63  84 CALM      29.94R
MONTGOMERY FLD PTSUNNY   70  65  84 E3        29.95R

$$

NORTH SAN DIEGO COUNTY

CITY           SKY/WX    TMP DP  RH WIND       PRES   REMARKS
CAMP PENDLETON CLOUDY    66  61  84 CALM      29.94R HAZE
OCEANSIDE AP   CLOUDY    68  64  87 CALM      29.93R
CARLSBAD       CLOUDY    70  65  84 S3        29.93R HAZE
DEL MAR          N/A     69  67  92 CALM      29.95R
LA JOLLA SCRIP   N/A     69  67  93 CALM      29.91R
FALLBROOK        N/A     66  66 100 CALM      29.94R
ESCONDIDO        N/A     68  66  93 CALM      29.94R
SAN MARCOS       N/A     67  62  85 CALM      29.91R
POWAY            N/A     66  64  92 CALM      29.94R
R. PENASQUITOS   N/A     68  66  93 CALM      29.93R

$$

EAST SAN DIEGO COUNTY

CITY           SKY/WX    TMP DP  RH WIND       PRES   REMARKS
RAMONA         SUNNY     66  56  70 CALM      29.97R
SANTEE LAKES     N/A     67  65  90 CALM      29.94R
GILLESPIE FLD  CLOUDY    70  68  94 NW3       29.96S FOG
LA MESA          N/A     69  66  92 CALM      29.87R
JAMUL            N/A     64  63  95 CALM      29.91R
DESCANSO N       N/A     69  49  47 E1        29.77S
MT. LAGUNA OBS   N/A     75  41  30 NE2       29.81R
CAMPO            N/A     65  50  58 NE5       30.00S

$$

ORANGE COUNTY AND THE LOS ANGELES BASIN

CITY           SKY/WX    TMP DP  RH WIND       PRES   REMARKS
JOHN WAYNE AP  MOSUNNY   71  64  78 CALM      29.93R
LAGUNA BEACH     N/A     64  61  90 CALM      29.89R
LAKE FOREST FR   N/A     66  59  79 CALM      29.82R
SANTA ANA        N/A     67  64  88 CALM      29.88R
HUNTINGTON BCH   N/A     66  64  95 CALM      29.94R
LOS ALAMITOS   MOSUNNY   68  65  90 E1        29.92S
FULLERTON      SUNNY     70  63  78 SE3       29.92R
LONG BEACH     SUNNY     69  65  86 E3        29.92S
L.A. AP        MOSUNNY   68  63  84 CALM      29.93R
L.A. DOWNTOWN  SUNNY     69  64  84 CALM      29.92R

$$

THE INLAND EMPIRE

CITY           SKY/WX    TMP DP  RH WIND       PRES   REMARKS
CORONA         SUNNY     69  63  81 CALM      29.94R
CHINO          MOSUNNY   68  63  84 CALM        N/A
ONTARIO        MOSUNNY   72  59  63 SW3       29.94R
SAN BERNARDINO MOSUNNY   72  55  56 CALM      29.94
RIVERSIDE AP   SUNNY     72  60  66 CALM      29.94S
RIV CYN CREST    N/A     71  65  83 CALM      29.92S
MORENO VALLEY    N/A     70  62  75 CALM        N/A
MARCH ARB      SUNNY     73  56  56 CALM      29.97R
HORSETHIEF CYN   N/A     69  52  53 CALM      29.92R
PERRIS           N/A     71  59  65 CALM      29.94R
MENIFEE          N/A     71  61  72 CALM      30.01R
HEMET EAST       N/A     71  50  47 CALM      29.88R
FRENCH VALLEY  FAIR      70  57  64 CALM      29.96S
TEMECULA         N/A     68  60  76 CALM      29.93R

$$

SAN BERNARDINO AND RIVERSIDE COUNTY MOUNTAINS

CITY           SKY/WX    TMP DP  RH WIND       PRES   REMARKS
BIG BEAR AP    SUNNY     52  43  71 CALM      30.35R
BIG BEAR SHEA    N/A     50  41  72 CALM      29.99R
ANGELUS OAKS     N/A     67  42  39 MISG      29.78R
PINE COVE        N/A     71  39  30 N3        29.87S

$$

SOUTHERN DESERT INCLUDING THE COACHELLA VALLEY

CITY           SKY/WX    TMP DP  RH WIND       PRES   REMARKS
PALM SPRINGS   SUNNY     92  54  27 NW8       29.84R
THOUSAND PALMS   N/A     91  54  28 NW10      29.77R
THERMAL        SUNNY     91  56  30 N7        29.76R
BLYTHE           N/A    N/A N/A N/A MISG      29.81R
IMPERIAL AP    SUNNY     88  64  44 SE6       29.78R
EL CENTRO NAS  MOSUNNY   88  58  36 SE7       29.78R
YUMA AZ        PTSUNNY   88  59  37 S8        29.81R
MEXICALI       MOSUNNY   84  68  58 SE7       29.80

$$

UPPER DESERT

CITY           SKY/WX    TMP DP  RH WIND       PRES   REMARKS
VICTORVILLE AP SUNNY     75  46  35 S6        30.06S
HESPERIA         N/A     72  50  46 W3        29.99R
APPLE VALLEY     N/A     69  53  56 CALM      30.12S
GRAY BUTTE AP  NOT AVBL
PALMDALE       SUNNY     76  49  38 S8        30.03S
LANCASTER      SUNNY     70  46  42 CALM      30.02S
EDWARDS AFB    MOSUNNY   73  47  39 SW2       30.00S
DAGGETT        SUNNY     81  48  31 W7        29.98R
29 PALMS N     SUNNY     85  49  28 VRB5      30.04R
NEEDLES        MOSUNNY   96  49  20 NW7       29.84R

$$

REGIONAL REPORTS

CITY           SKY/WX    TMP DP  RH WIND       PRES   REMARKS
SANTA BARBARA  CLEAR     66  60  81 CALM      29.91R
SANDBERG       CLEAR     77  46  33 N15       30.18S
MT. WILSON       N/A     72  41  33 MISG        N/A
LAS VEGAS NV   PTSUNNY   85  52  32 S8        29.93S
PHOENIX AZ     PTSUNNY   91  57  31 SE9       29.88R
TIJUANA        CLOUDY    68  64  88 CALM      29.96R FOG
ENSENADA NW      N/A     69  32  25 CALM      29.91R

$$

OFFSHORE ISLANDS

CITY           SKY/WX    TMP DP  RH WIND       PRES   REMARKS
CATALINA ARPT  CLEAR     72  45  37 NW8       29.98R
SAN NICOLAS IS MOCLDY    63  59  87 NW20      29.94S FOG

$$

MARINE AND OFFSHORE BUOY REPORTS

STATION/POSITION SKY/WX   TEMP    WIND        PRES    SWELL
                          AIR SEA DIR/SP/G            HT/PER/DIR
                          (F)     (DEG/KT/KT) (MB)    (FT/S/D)
TANNER BANKS               64 67  310/ 17/ 19 1014.3R   3/150/13
S CLEMENTE BASIN           68 71  300/ 10/ 12 1014.0R   5/290/ 7
SAN NICOLAS IS.               67                N/A     2/170/11
SO. S. ROSA ISLA           63 66  310/ 21/ 25 1013.0R   2/12
W. S. BARBARA CH           60 61  310/ 21/ 27 1012.7F   3/320/ 9
M. S. BARBARA CH           64 66  280/ 10/ 12 1012.8R
S. MONICA BASIN            65 67  350/ 10/ 14 1012.8R   3/270/ 6
S PEDRO CHANNEL               69                N/A     2/160/13
DANA POINT                    70                N/A     2/170/11
CMP PENDLETON NS              71                N/A     2/220/17
OCEANSIDE OFFSHR              72                N/A     2/190/12
TORREY PINES OTR              74                N/A     2/190/13
LA JOLLA 1                 71 68  190/  4/  5 1013.7R
MISSION BAY BUOY              72                N/A     2/190/12
SAN DIEGO BAY                 75              1014.1R
POINT LOMA SOUTH              72                N/A     2/170/12

$$



USA.gov is the U.S. government's official web portal to all federal, state and local government web resources and services.